This is the latest recevied weather packets stored in our database for station/object N8BAP. If no packets are shown the sender has not sent any weather packets the latest 10 day(s).
| Time | Temp. | Humidity | Pressure | Rain* | Wind** | Luminosity | Snow |
|---|---|---|---|---|---|---|---|
| 1777608135 | 5° C | 93% | 1020.3 hPa | 0 mm | - | 0 W/m² | - |
| 1777607831 | 5° C | 93% | 1020.6 hPa | 0 mm | - | 0 W/m² | - |
| 1777607527 | 4.44° C | 93% | 1020.4 hPa | 0 mm | - | 0 W/m² | - |
| 1777607223 | 4.44° C | 93% | 1020.5 hPa | 0 mm | - | 0 W/m² | - |
| 1777606920 | 3.89° C | 92% | 1020.4 hPa | 0 mm | - | 0 W/m² | - |
| 1777606615 | 4.44° C | 92% | 1020.4 hPa | 0 mm | - | 0 W/m² | - |
| 1777606311 | 5° C | 92% | 1020.3 hPa | 0 mm | - | 0 W/m² | - |
| 1777606006 | 5° C | 92% | 1020.5 hPa | 0 mm | - | 0 W/m² | - |
| 1777605703 | 4.44° C | 92% | 1020.6 hPa | 0 mm | - | 0 W/m² | - |
| 1777605402 | 4.44° C | 91% | 1020.3 hPa | 0 mm | - | 0 W/m² | - |
| 1777605098 | 4.44° C | 90% | 1020.4 hPa | 0 mm | - | 0 W/m² | - |
| 1777604794 | 4.44° C | 90% | 1020.6 hPa | 0 mm | - | 0 W/m² | - |
| 1777604491 | 5° C | 90% | 1020.6 hPa | 0 mm | - | 0 W/m² | - |
| 1777604185 | 4.44° C | 90% | 1020.6 hPa | 0 mm | - | 0 W/m² | - |
| 1777603882 | 4.44° C | 88% | 1020.7 hPa | 0 mm | - | 0 W/m² | - |
| 1777603579 | 5° C | 88% | 1020.8 hPa | 0 mm | - | 0 W/m² | - |
| 1777603274 | 5° C | 88% | 1020.8 hPa | 0 mm | - | 0 W/m² | - |
| 1777602970 | 5° C | 87% | 1020.9 hPa | 0 mm | - | 0 W/m² | - |
| 1777602665 | 5° C | 86% | 1020.8 hPa | 0 mm | - | 0 W/m² | - |
| 1777602360 | 5.56° C | 86% | 1020.7 hPa | 0 mm | - | 0 W/m² | - |
| 1777602057 | 6.11° C | 85% | 1020.9 hPa | 0 mm | - | 0 W/m² | - |
| 1777601756 | 6.11° C | 84% | 1020.7 hPa | 0 mm | - | 0 W/m² | - |
| 1777601452 | 6.11° C | 85% | 1020.7 hPa | 0 mm | - | 0 W/m² | - |
| 1777601148 | 6.11° C | 85% | 1020.8 hPa | 0 mm | - | 0 W/m² | - |
| 1777600846 | 6.11° C | 82% | 1020.4 hPa | 0 mm | - | 0 W/m² | - |
* Rain latest hour (hover to see other rain measurements)
** Current wind speed in m/s (hover to see current wind gust speed)